EW8150 Weather Reports


time (UTC)temp
F
wind
direction
speed
knots
gust
knots
rain 1hr
in
rain 24hr
in
rain mn
in
humidity
%
barometer
mb
20260509090106 48 173 0.0 2.6 0.00 0.00 0.00 99 1005.6
20260509084528 47 175 0.0 1.7 0.00 0.00 0.00 99 1005.7
20260509083051 46 178 0.0 0.0 0.00 0.00 0.00 98 1005.8
20260509081513 46 178 0.0 0.0 0.00 0.00 0.00 97 1005.8
20260509080028 46 178 0.0 0.0 0.00 0.00 0.00 97 1006.1
20260509074544 45 178 0.0 0.0 0.00 0.00 0.00 96 1006.2
20260509073042 45 178 0.0 0.0 0.00 0.00 0.00 95 1006.2
20260509071511 46 178 0.0 0.0 0.00 0.00 0.00 95 1006.5
20260509070029 46 178 0.0 0.0 0.00 0.00 0.00 94 1006.8
20260509064504 46 178 0.0 0.0 0.00 0.00 0.00 93 1006.8
20260509063020 47 178 0.0 0.0 0.00 0.00 0.00 92 1006.8
20260509061534 47 178 0.0 0.0 0.00 0.00 0.00 91 1006.9
20260509060105 47 168 0.0 0.0 0.00 0.00 0.00 89 1007.1
20260509054530 48 169 0.0 0.0 0.00 0.00 0.00 88 1007.3
20260509053101 48 169 0.0 0.0 0.00 0.00 0.00 88 1007.3
20260509051506 47 169 0.0 0.0 0.00 0.00 0.00 89 1007.3
20260509050100 46 168 0.0 0.9 0.00 0.00 0.00 90 1007.3
20260509050002 46 177 0.0 1.7 0.00 0.00 0.00 90 1007.2
20260509044552 45 179 0.0 1.7 0.00 0.00 0.00 91 1007.5
20260509043108 45 179 0.0 0.9 0.00 0.00 0.00 92 1007.5
20260509041508 46 179 0.0 0.0 0.00 0.00 0.00 91 1007.7
20260509040030 46 179 0.0 0.9 0.00 0.00 0.00 91 1007.8
20260509034546 46 186 0.0 0.0 0.00 0.00 0.00 90 1007.9
20260509033056 47 260 0.0 0.0 0.00 0.00 0.00 88 1008.1
20260509031552 47 260 0.0 0.0 0.00 0.00 0.00 86 1008.1
20260509030109 48 260 0.0 0.0 0.00 0.00 0.00 85 1008.3
20260509024514 48 260 0.0 0.0 0.00 0.00 0.00 84 1008.5
20260509023036 49 260 0.0 0.0 0.00 0.00 0.00 82 1008.6
20260509021505 50 260 0.0 0.0 0.00 0.00 0.00 80 1008.5
20260509020018 51 260 0.0 0.0 0.00 0.00 0.00 77 1008.7
20260509014557 52 260 0.0 0.0 0.00 0.00 0.00 74 1008.6
20260509013011 53 260 0.0 0.0 0.00 0.00 0.00 72 1008.5
20260509011516 55 260 0.0 0.0 0.00 0.00 0.00 70 1008.6
20260509010024 56 260 0.0 0.0 0.00 0.00 0.00 68 1008.5
20260509004606 58 260 0.0 0.0 0.00 0.00 0.00 67 1008.5
20260509003023 59 260 0.0 0.0 0.00 0.00 0.00 63 1008.5
20260509001554 59 260 0.0 0.0 0.00 0.00 0.00 62 1008.6
20260509000014 60 260 0.0 1.7 0.00 0.00 0.00 61 1008.7
20260508234546 61 225 0.0 1.7 0.00 0.00 0.00 61 1008.9
20260508233052 61 243 0.9 2.6 0.00 0.00 0.00 59 1008.9
20260508231528 62 260 1.7 3.5 0.00 0.00 0.00 58 1009.0
20260508230028 62 56 0.0 5.2 0.00 0.00 0.00 56 1008.9
20260508224635 63 227 0.9 6.1 0.00 0.00 0.00 52 1009.0
20260508223038 65 220 0.0 6.1 0.00 0.00 0.00 50 1009.0
20260508221555 66 171 0.9 9.6 0.00 0.00 0.00 48 1009.1
20260508220052 67 210 1.7 5.2 0.00 0.00 0.00 47 1009.1
20260508214515 67 259 0.9 6.1 0.00 0.00 0.00 43 1009.1
20260508213035 68 191 0.9 6.1 0.00 0.00 0.00 44 1009.1
20260508211513 68 205 0.9 6.1 0.00 0.00 0.00 43 1009.3
20260508210013 69 313 0.9 6.1 0.00 0.00 0.00 44 1009.4
20260508204542 68 275 0.9 7.8 0.00 0.00 0.00 42 1009.5
20260508203108 68 330 0.9 6.1 0.00 0.00 0.00 43 1009.8
20260508201517 68 265 1.7 7.8 0.00 0.00 0.00 45 1009.9
20260508200013 69 161 0.9 6.1 0.00 0.00 0.00 44 1010.0
20260508194541 68 9 0.9 7.0 0.00 0.00 0.00 43 1010.3
20260508193047 67 279 1.7 4.3 0.00 0.00 0.00 43 1010.6
20260508191511 68 243 1.7 7.0 0.00 0.00 0.00 44 1010.6
20260508190059 68 186 1.7 4.3 0.00 0.00 0.00 43 1010.8
20260508184520 67 255 1.7 6.1 0.00 0.00 0.00 43 1011.0
20260508183032 65 232 2.6 6.1 0.00 0.00 0.00 44 1011.1
20260508181555 64 265 2.6 7.8 0.00 0.00 0.00 45 1011.4
20260508180054 63 203 0.9 5.2 0.00 0.00 0.00 47 1011.5
20260508174505 63 252 1.7 5.2 0.00 0.00 0.00 47 1011.7
20260508173100 63 355 0.9 5.2 0.00 0.00 0.00 46 1011.9
20260508171504 63 283 1.7 5.2 0.00 0.00 0.00 47 1012.0
20260508170008 63 259 1.7 4.3 0.00 0.00 0.00 45 1012.1
20260508164519 64 193 1.7 6.1 0.00 0.00 0.00 44 1012.3
20260508163029 64 216 1.7 5.2 0.00 0.00 0.00 45 1012.4
20260508161527 64 256 0.9 4.3 0.00 0.00 0.00 52 1012.5
20260508160024 63 246 2.6 4.3 0.00 0.00 0.00 52 1012.6
20260508154528 61 152 0.9 3.5 0.00 0.00 0.00 51 1012.9
20260508153025 60 307 1.7 6.1 0.00 0.00 0.00 50 1012.6
20260508151531 60 103 2.6 6.1 0.00 0.00 0.00 58 1012.5
20260508150045 59 321 0.9 3.5 0.00 0.00 0.00 62 1012.7
20260508144529 59 327 0.9 3.5 0.00 0.00 0.00 60 1012.9
20260508143021 59 12 0.0 2.6 0.00 0.00 0.00 67 1013.0
20260508141533 57 30 0.0 2.6 0.00 0.00 0.00 72 1013.3
20260508140048 55 72 0.9 2.6 0.00 0.00 0.00 79 1013.4
20260508134516 53 109 0.9 2.6 0.00 0.00 0.00 84 1013.5
20260508133035 50 81 0.9 2.6 0.00 0.00 0.00 87 1013.5
20260508131511 49 78 0.0 1.7 0.00 0.00 0.00 94 1013.4
20260508130032 46 101 0.9 1.7 0.00 0.00 0.00 98 1013.7
20260508124506 44 94 0.0 1.7 0.00 0.00 0.00 100 1013.7
20260508123033 40 218 0.0 0.0 0.00 0.00 0.00 100 1013.9
20260508121505 38 225 0.0 0.0 0.00 0.00 0.00 100 1013.7
20260508120025 36 225 0.0 0.0 0.00 0.00 0.00 99 1013.6
20260508114558 35 225 0.0 0.0 0.00 0.00 0.00 99 1013.6
20260508114500 35 225 0.0 0.0 0.00 0.00 0.00 99 1013.5
20260508113022 34 225 0.0 0.0 0.00 0.00 0.00 99 1013.3
20260508111602 33 225 0.0 0.0 0.00 0.00 0.00 98 1013.2
20260508110020 33 225 0.0 0.0 0.00 0.00 0.00 98 1013.1
20260508104555 33 224 0.0 0.0 0.00 0.00 0.00 98 1012.9
20260508103021 34 225 0.0 0.0 0.00 0.00 0.00 98 1012.8
20260508101550 34 225 0.0 0.0 0.00 0.00 0.00 97 1012.9
20260508100010 34 225 0.0 0.0 0.00 0.00 0.00 97 1012.9
20260508094533 34 224 0.0 0.0 0.00 0.00 0.00 97 1012.8
20260508093038 35 224 0.0 0.0 0.00 0.00 0.00 97 1012.7
20260508091610 35 225 0.0 0.0 0.00 0.00 0.00 97 1012.8
20260508091504 35 225 0.0 0.0 0.00 0.00 0.00 97 1012.9